14:54
Airports
History
Links
Donate
Help keep this website running!
PayPal
Bitcoin
This page is community maintained. The information is intended for PC simulator navigation or reference.
Always use approved charts for navigation.
O14
Turlock Airpark
Turlock Airpark (O14)
Turlock, California, United States (95380)
(U)
Lat/Lng:37° 28' 14.76" N / 120° 50' 38.74" W
37.470768 / -120.844094
Elevation:100'ft / 30mMSL
ID / ICAO:O14
Runways:1
Longest:(13-31) 627.6m / 2,059ft Asphalt
Distance To
Airport ID:
Nearby VORs <50NM
Nearby NDBs
Nearby WeatherUpdated 08-19-17 13:53 GMT
Nearby weather at KMOD, Modesto City-co-harry Sham Fld located 12.3 nautical miles from O14
Altimeter: 29.85
Visibility: 10.0 statute miles
Wind: 7 knots (310°)
Temp: 19°c 66°f
Humidity: 77.6%

METAR: KMOD 191353Z 31007KT 10SM CLR 19/15 A2985 RMK AO2 SLP107 T01890150

(Powered by phpweather)
Runway 13 / 31
Dimensions:627.6 x 18.3m 2059' x 60'ft
Surface:Asphalt
Edge Lights:Low intensity
Runway 13 [A]Runway 31 [B]
Heading:146°TH 326°TH
Lat:
Lng:
37° 28' 23.26"N
120° 50' 45.95"W
37° 28' 6.28"N
120° 50' 31.52"W
ALS:SSALR
User Notes and Comments
Google Map
Nearby Airports
(R) Ahlem Farms 7.3 NM
CL84 SW 218°
(U) Turlock Muni 8.1 NM
O15 E 83°
(R) Stevinson Strip 10.2 NM
CA45 S 187°
(C) Modesto City-co-harry Sham Fld 12.3 NM
KMOD (WX) NNW 330°
(R) Crows Landing 15.2 NM
KNRC WSW 253°
(U) Gustine 16.0 NM
3O1 SSW 204°
(C) Castle 16.4 NM
KMER (WX) ESE 112°
VFR Chart
Flight Planning at SkyVector.com